When you browse on this site, cookies collect data to enhance your experience and personalize the content and advertising you see.
Visit our Privacy Policy to learn more. By continuing to use the site, you agree to this use of cookies and data.
  • Em Portugal
  • Lista de países
  • Para 7 dias
  • Temperatura da água
  • Mapas de satélite
  • Mapa do tempo
  • Widgets de tempo
  • user-avatar
    Iniciar Sessão

    Previsão horária em Volnovaha

    Hoje, 25 Maio, Sábado

    Tempo Temperatura Precipitação Vento Pressão Humidade
    00:00 +15°C° 0 mm 2 m/s 733 mmHg 79%
    01:00 +15°C° 0 mm 2 m/s 733 mmHg 79%
    02:00 +14°C° 0 mm 2 m/s 732 mmHg 79%
    03:00 +14°C° 0.2 mm 2 m/s 732 mmHg 82%
    04:00 +15°C° 0.2 mm 2 m/s 733 mmHg 85%
    05:00 +15°C° 0.2 mm 2 m/s 733 mmHg 88%
    06:00 +17°C° 0.6 mm 3 m/s 733 mmHg 85%
    07:00 +18°C° 0.6 mm 3 m/s 732 mmHg 81%
    08:00 +20°C° 0.6 mm 4 m/s 732 mmHg 78%
    09:00 +21°C° 1.9 mm 4 m/s 732 mmHg 75%
    10:00 +22°C° 1.9 mm 4 m/s 732 mmHg 72%
    11:00 +22°C° 1.9 mm 5 m/s 732 mmHg 69%
    12:00 +22°C° 1.5 mm 5 m/s 732 mmHg 70%
    13:00 +22°C° 1.5 mm 5 m/s 732 mmHg 71%
    14:00 +22°C° 1.5 mm 6 m/s 732 mmHg 72%
    15:00 +21°C° 0.8 mm 5 m/s 732 mmHg 75%
    16:00 +20°C° 0.8 mm 5 m/s 732 mmHg 78%
    17:00 +20°C° 0.8 mm 4 m/s 732 mmHg 80%
    18:00 +19°C° 0.2 mm 4 m/s 731 mmHg 83%
    19:00 +18°C° 0.2 mm 3 m/s 731 mmHg 86%
    20:00 +16°C° 0.2 mm 3 m/s 731 mmHg 89%
    21:00 +16°C° 0 mm 3 m/s 731 mmHg 89%
    22:00 +16°C° 0 mm 3 m/s 731 mmHg 90%
    23:00 +16°C° 0 mm 3 m/s 731 mmHg 91%

    Amanhã, 26 Maio, Domingo

    Tempo Temperatura Precipitação Vento Pressão Humidade
    00:00 +16°C° 0.2 mm 3 m/s 731 mmHg 91%
    01:00 +14°C° 0.2 mm 3 m/s 731 mmHg 92%
    02:00 +14°C° 0.2 mm 4 m/s 731 mmHg 92%
    03:00 +14°C° 0.8 mm 4 m/s 732 mmHg 92%
    04:00 +14°C° 0.8 mm 4 m/s 732 mmHg 92%
    05:00 +14°C° 0.8 mm 4 m/s 732 mmHg 91%
    06:00 +15°C° 0.1 mm 4 m/s 732 mmHg 88%
    07:00 +16°C° 0.1 mm 5 m/s 732 mmHg 85%
    08:00 +19°C° 0.1 mm 5 m/s 733 mmHg 82%
    09:00 +20°C° 0.7 mm 5 m/s 733 mmHg 78%
    10:00 +21°C° 0.7 mm 5 m/s 733 mmHg 73%
    11:00 +22°C° 0.7 mm 5 m/s 733 mmHg 68%
    12:00 +22°C° 0.9 mm 5 m/s 733 mmHg 67%
    13:00 +22°C° 0.9 mm 5 m/s 733 mmHg 67%
    14:00 +23°C° 0.9 mm 6 m/s 733 mmHg 66%
    15:00 +22°C° 1.1 mm 5 m/s 733 mmHg 69%
    16:00 +22°C° 1.1 mm 5 m/s 733 mmHg 72%
    17:00 +21°C° 1.1 mm 4 m/s 733 mmHg 75%
    18:00 +20°C° 0.7 mm 4 m/s 733 mmHg 78%
    19:00 +19°C° 0.7 mm 4 m/s 734 mmHg 82%
    20:00 +18°C° 0.7 mm 4 m/s 734 mmHg 86%
    21:00 +17°C° 0 mm 4 m/s 735 mmHg 87%
    22:00 +17°C° 0 mm 4 m/s 735 mmHg 89%
    23:00 +15°C° 0 mm 4 m/s 735 mmHg 91%

    Depois de amanhã, 27 Maio, Segunda-feira

    Tempo Temperatura Precipitação Vento Pressão Humidade
    00:00 +16°C° 0 mm 3 m/s 736 mmHg 92%
    01:00 +14°C° 0 mm 3 m/s 736 mmHg 92%
    02:00 +14°C° 0 mm 3 m/s 737 mmHg 93%
    03:00 +14°C° 0 mm 3 m/s 737 mmHg 92%
    04:00 +14°C° 0 mm 3 m/s 737 mmHg 91%
    05:00 +14°C° 0 mm 3 m/s 738 mmHg 91%
    06:00 +17°C° 0 mm 3 m/s 738 mmHg 84%
    07:00 +19°C° 0 mm 3 m/s 739 mmHg 78%
    08:00 +21°C° 0 mm 3 m/s 740 mmHg 72%
    09:00 +22°C° 0 mm 3 m/s 740 mmHg 66%
    10:00 +24°C° 0 mm 3 m/s 740 mmHg 61%
    11:00 +25°C° 0 mm 3 m/s 740 mmHg 55%
    12:00 +25°C° 0 mm 3 m/s 740 mmHg 53%
    13:00 +25°C° 0 mm 3 m/s 740 mmHg 52%
    14:00 +26°C° 0 mm 3 m/s 740 mmHg 50%
    15:00 +26°C° 0 mm 3 m/s 740 mmHg 53%
    16:00 +25°C° 0 mm 3 m/s 740 mmHg 57%
    17:00 +25°C° 0 mm 3 m/s 740 mmHg 60%
    18:00 +24°C° 0 mm 2 m/s 740 mmHg 63%
    19:00 +22°C° 0 mm 1 m/s 740 mmHg 66%
    20:00 +20°C° 0 mm 1 m/s 741 mmHg 69%
    21:00 +19°C° 0 mm 1 m/s 741 mmHg 71%
    22:00 +19°C° 0 mm 1 m/s 741 mmHg 73%
    23:00 +18°C° 0 mm 1 m/s 741 mmHg 75%

    28 Maio, Terça-feira

    Tempo Temperatura Precipitação Vento Pressão Humidade
    00:00 +18°C° 0 mm 1 m/s 741 mmHg 75%
    01:00 +18°C° 0 mm 1 m/s 741 mmHg 76%
    02:00 +17°C° 0 mm 2 m/s 741 mmHg 77%
    03:00 +18°C° 0 mm 1 m/s 741 mmHg 77%
    04:00 +18°C° 0 mm 1 m/s 741 mmHg 78%
    05:00 +18°C° 0 mm 1 m/s 741 mmHg 78%
    06:00 +20°C° 0 mm 1 m/s 741 mmHg 72%
    07:00 +22°C° 0 mm 1 m/s 742 mmHg 66%
    08:00 +24°C° 0 mm 1 m/s 742 mmHg 60%
    09:00 +25°C° 0 mm 1 m/s 742 mmHg 56%
    10:00 +26°C° 0 mm 1 m/s 742 mmHg 53%
    11:00 +27°C° 0 mm 1 m/s 742 mmHg 49%
    12:00 +27°C° 0 mm 2 m/s 742 mmHg 50%
    13:00 +28°C° 0 mm 2 m/s 742 mmHg 50%
    14:00 +28°C° 0 mm 2 m/s 742 mmHg 50%
    15:00 +27°C° 0 mm 2 m/s 742 mmHg 53%
    16:00 +27°C° 0 mm 2 m/s 742 mmHg 57%
    17:00 +27°C° 0 mm 2 m/s 741 mmHg 60%
    18:00 +25°C° 0 mm 2 m/s 741 mmHg 64%
    19:00 +23°C° 0 mm 2 m/s 741 mmHg 68%
    20:00 +20°C° 0 mm 2 m/s 741 mmHg 72%
    21:00 +19°C° 0 mm 2 m/s 741 mmHg 72%
    22:00 +20°C° 0 mm 1 m/s 741 mmHg 71%
    23:00 +19°C° 0 mm 1 m/s 741 mmHg 70%

    29 Maio, Quarta-feira

    Tempo Temperatura Precipitação Vento Pressão Humidade
    00:00 +19°C° 0 mm 1 m/s 741 mmHg 71%
    01:00 +18°C° 0 mm 2 m/s 741 mmHg 73%
    02:00 +18°C° 0 mm 2 m/s 741 mmHg 74%
    03:00 +18°C° 0 mm 2 m/s 741 mmHg 77%
    04:00 +18°C° 0 mm 2 m/s 741 mmHg 79%
    05:00 +18°C° 0 mm 3 m/s 741 mmHg 82%
    06:00 +20°C° 0 mm 3 m/s 741 mmHg 77%
    07:00 +22°C° 0 mm 4 m/s 741 mmHg 71%
    08:00 +25°C° 0 mm 5 m/s 741 mmHg 65%
    09:00 +26°C° 0 mm 5 m/s 741 mmHg 62%
    10:00 +26°C° 0 mm 5 m/s 741 mmHg 59%
    11:00 +27°C° 0 mm 6 m/s 741 mmHg 56%
    12:00 +27°C° 0 mm 6 m/s 741 mmHg 56%
    13:00 +28°C° 0 mm 6 m/s 741 mmHg 56%
    14:00 +28°C° 0 mm 6 m/s 741 mmHg 56%
    15:00 +27°C° 0 mm 5 m/s 740 mmHg 59%
    16:00 +27°C° 0 mm 5 m/s 740 mmHg 62%
    17:00 +27°C° 0 mm 4 m/s 740 mmHg 64%
    18:00 +25°C° 0 mm 4 m/s 740 mmHg 70%
    19:00 +22°C° 0 mm 4 m/s 740 mmHg 75%
    20:00 +21°C° 0 mm 3 m/s 740 mmHg 80%
    21:00 +20°C° 0 mm 3 m/s 740 mmHg 80%
    22:00 +20°C° 0 mm 3 m/s 740 mmHg 80%
    23:00 +19°C° 0 mm 3 m/s 740 mmHg 81%

    30 Maio, Quinta-feira

    Tempo Temperatura Precipitação Vento Pressão Humidade
    00:00 +19°C° 0 mm 3 m/s 740 mmHg 80%
    01:00 +18°C° 0 mm 3 m/s 740 mmHg 79%
    02:00 +18°C° 0 mm 3 m/s 740 mmHg 79%
    03:00 +18°C° 0 mm 3 m/s 740 mmHg 79%
    04:00 +18°C° 0 mm 3 m/s 740 mmHg 79%
    05:00 +18°C° 0 mm 3 m/s 740 mmHg 79%
    06:00 +20°C° 0 mm 4 m/s 740 mmHg 72%
    07:00 +22°C° 0 mm 5 m/s 740 mmHg 65%
    08:00 +25°C° 0 mm 5 m/s 740 mmHg 59%
    09:00 +26°C° 0 mm 5 m/s 740 mmHg 55%
    10:00 +27°C° 0 mm 6 m/s 740 mmHg 51%
    11:00 +29°C° 0 mm 6 m/s 740 mmHg 48%
    12:00 +29°C° 0 mm 6 m/s 740 mmHg 48%
    13:00 +29°C° 0 mm 5 m/s 740 mmHg 47%
    14:00 +30°C° 0 mm 5 m/s 740 mmHg 47%
    15:00 +29°C° 0 mm 4 m/s 740 mmHg 52%
    16:00 +29°C° 0 mm 3 m/s 740 mmHg 56%
    17:00 +29°C° 0 mm 3 m/s 740 mmHg 60%
    18:00 +27°C° 0 mm 3 m/s 740 mmHg 63%
    19:00 +25°C° 0 mm 3 m/s 740 mmHg 66%
    20:00 +22°C° 0 mm 3 m/s 740 mmHg 69%
    21:00 +22°C° 0 mm 3 m/s 740 mmHg 69%
    22:00 +21°C° 0 mm 3 m/s 740 mmHg 69%
    23:00 +20°C° 0 mm 3 m/s 740 mmHg 69%
    Mostrar mais